CZ-2D DEB

Satellite information

Favourite Embed

Satellite Type and Status

DEBRISIN ORBIT

Key statistics

Satellite CZ-2D DEB at a glance.

Uptime

4978

Days in orbit

Revolutions

≈ 13.9

Per day

Orbit

SSO

Sun Synchronous Orbit

Inclination

98.7

Latest

Satellite identification and parameters

Extended collection of information and parameters for CZ-2D DEB.

Object identification

Identified? True

Debris? True

Object name: CZ-2D DEB

International designator: 2011-068J

Object number (NORAD): 38327

Object ID (CCSDS): 38327

Country: PEOPLES REPUBLIC OF CHINA (PRC)

Current information (Y/N): Y

RCS size: SMALL

Orbital parameters

Period: 103.304 minutes

Inclination: 98.6996 deg

SMA: 7292.989 km

Apoapsis: 1060.976 km

Periapsis: 768.731 km

RAAN: 287.3949 deg

Eccentricy: 0.020036

Argument of periapsis: 170.9844 deg

Mean anomaly: 343.2782 deg

Mean motion: 13.93941163 rev/day

Mean motion (dot): 0.00000357 rev/day2

B* drag term: 0.00025431 1/REarth

Two-line elements (TLE)

Creation date: July 6, 2025, 10:36 p.m.

Reference frame: TEME

Reference center: EARTH

Epoch: July 6, 2025, 6:17 p.m. UTC

TLE line 0: 0 CZ-2D DEB

TLE line 1: 1 38327U 11068J 25187.76219834 .00000357 00000-0 25431-3 0 9995

TLE line 2: 2 38327 98.6996 287.3949 0200360 170.9844 343.2782 13.93941163690990

Live tracking on map

Real-time ground track for satellite CZ-2D DEB.

In-orbit conjunctions

A list of the most updated potential collisions computed for object CZ-2D DEB.

Target Orbit TCA Probability of collision Miss distance Type
COSMOS 1275 DEB LEO 2024-06-27 03:37:54 0.0001084283 76.0 (m) DEBRIS

Associated space launch

CZ-2D DEB was lifted into orbit during the mission ‘Long March 2D | Shiyan Weixing 4 & Chuang Xin 1C’, on board a Long March 2D space rocket.

The launch took place on Nov. 20, 2011, 12:15 a.m. from Launch Area 4 (SLS-2 / 603).

For more information about the launch, click the button.

Launch to space Long March 2D | Shiyan Weixing 4 & Chuang Xin 1C
Long March 2D | Shiyan Weixing 4 & Chuang Xin 1C

Agency: N/A

Status: Launch Successful

Launch date: Nov. 20, 2011, 12:15 a.m. UTC

Rocket: Long March 2D

Launch pad: Launch Area 4 (SLS-2 / 603)

Location: Jiuquan Satellite Launch Center, People's Republic of China

...

Latest news about this satellite

There are no fresh news available about this satellite. Check back as we update our databases every day.


Newsletter sign-up

Weekly statistics, charts and insights to help you stay on top of the space industry.